Year,Month,Day,Hour,Minute,Value (Times are PST for temperature in C)
2019,08,14,00,00,15.70
2019,08,14,00,01,15.70
2019,08,14,00,02,15.70
2019,08,14,00,03,15.70
2019,08,14,00,04,15.70
2019,08,14,00,05,15.70
2019,08,14,00,06,15.70
2019,08,14,00,07,15.70
2019,08,14,00,08,15.70
2019,08,14,00,09,15.70
2019,08,14,00,10,15.70
2019,08,14,00,11,15.70
2019,08,14,00,12,15.70
2019,08,14,00,13,15.70
2019,08,14,00,14,15.60
2019,08,14,00,15,15.60
2019,08,14,00,16,15.60
2019,08,14,00,17,15.60
2019,08,14,00,18,15.60
2019,08,14,00,19,15.60
2019,08,14,00,20,15.70
2019,08,14,00,21,15.70
2019,08,14,00,22,15.60
2019,08,14,00,23,15.60
2019,08,14,00,24,15.60
2019,08,14,00,25,15.70
2019,08,14,00,26,15.70
2019,08,14,00,27,15.70
2019,08,14,00,28,15.70
2019,08,14,00,29,15.60
2019,08,14,00,30,15.70
2019,08,14,00,31,15.60
2019,08,14,00,32,15.60
2019,08,14,00,33,15.70
2019,08,14,00,34,15.60
2019,08,14,00,35,15.60
2019,08,14,00,36,15.60
2019,08,14,00,37,15.60
2019,08,14,00,38,15.60
2019,08,14,00,39,15.60
2019,08,14,00,40,15.60
2019,08,14,00,41,15.60
2019,08,14,00,42,15.60
2019,08,14,00,43,15.60
2019,08,14,00,44,15.60
2019,08,14,00,45,15.60
2019,08,14,00,46,15.60
2019,08,14,00,47,15.60
2019,08,14,00,48,15.50
2019,08,14,00,49,15.60
2019,08,14,00,50,15.60
2019,08,14,00,51,15.70
2019,08,14,00,52,15.70
2019,08,14,00,53,15.70
2019,08,14,00,54,15.70
2019,08,14,00,55,15.70
2019,08,14,00,56,15.70
2019,08,14,00,57,15.60
2019,08,14,00,58,15.60
2019,08,14,00,59,15.60
2019,08,14,01,00,15.60
2019,08,14,01,01,15.50
2019,08,14,01,02,15.50
2019,08,14,01,03,15.50
2019,08,14,01,04,15.50
2019,08,14,01,05,15.40
2019,08,14,01,06,15.40
2019,08,14,01,07,15.40
2019,08,14,01,08,15.40
2019,08,14,01,09,15.40
2019,08,14,01,10,15.30
2019,08,14,01,11,15.30
2019,08,14,01,12,15.30
2019,08,14,01,13,15.30
2019,08,14,01,14,15.30
2019,08,14,01,15,15.30
2019,08,14,01,16,15.30
2019,08,14,01,17,15.20
2019,08,14,01,18,15.30
2019,08,14,01,19,15.20
2019,08,14,01,20,15.30
2019,08,14,01,21,15.30
2019,08,14,01,22,15.30
2019,08,14,01,23,15.20
2019,08,14,01,24,15.20
2019,08,14,01,25,15.20
2019,08,14,01,26,15.30
2019,08,14,01,27,15.40
2019,08,14,01,28,15.40
2019,08,14,01,29,15.40
2019,08,14,01,30,15.40
2019,08,14,01,31,15.40
2019,08,14,01,32,15.40
2019,08,14,01,33,15.40
2019,08,14,01,34,15.40
2019,08,14,01,35,15.40
2019,08,14,01,36,15.30
2019,08,14,01,37,15.30
2019,08,14,01,38,15.30
2019,08,14,01,39,15.30
2019,08,14,01,40,15.30
2019,08,14,01,41,15.30
2019,08,14,01,42,15.30
2019,08,14,01,43,15.30
2019,08,14,01,44,15.30
2019,08,14,01,45,15.30
2019,08,14,01,46,15.30
2019,08,14,01,47,15.30
2019,08,14,01,48,15.20
2019,08,14,01,49,15.20
2019,08,14,01,50,15.20
2019,08,14,01,51,15.20
2019,08,14,01,52,15.20
2019,08,14,01,53,15.20
2019,08,14,01,54,15.20
2019,08,14,01,55,15.20
2019,08,14,01,56,15.20
2019,08,14,01,57,15.10
2019,08,14,01,58,15.10
2019,08,14,01,59,15.10
2019,08,14,02,00,15.10
2019,08,14,02,01,15.10
2019,08,14,02,02,15.10
2019,08,14,02,03,15.10
2019,08,14,02,04,15.10
2019,08,14,02,05,15.00
2019,08,14,02,06,15.00
2019,08,14,02,07,15.00
2019,08,14,02,08,15.00
2019,08,14,02,09,15.00
2019,08,14,02,10,15.00
2019,08,14,02,11,15.00
2019,08,14,02,12,15.00
2019,08,14,02,13,15.00
2019,08,14,02,14,15.00
2019,08,14,02,15,15.00
2019,08,14,02,16,15.00
2019,08,14,02,17,15.00
2019,08,14,02,18,15.10
2019,08,14,02,19,15.10
2019,08,14,02,20,15.10
2019,08,14,02,21,15.10
2019,08,14,02,22,15.20
2019,08,14,02,23,15.20
2019,08,14,02,24,15.20
2019,08,14,02,25,15.20
2019,08,14,02,26,15.20
2019,08,14,02,27,15.20
2019,08,14,02,28,15.20
2019,08,14,02,29,15.20
2019,08,14,02,30,15.10
2019,08,14,02,31,15.10
2019,08,14,02,32,15.10
2019,08,14,02,33,15.10
2019,08,14,02,34,15.10
2019,08,14,02,35,15.10
2019,08,14,02,36,15.10
2019,08,14,02,37,15.10
2019,08,14,02,38,15.10
2019,08,14,02,39,15.10
2019,08,14,02,40,15.10
2019,08,14,02,41,15.10
2019,08,14,02,42,15.10
2019,08,14,02,43,15.10
2019,08,14,02,44,15.10
2019,08,14,02,45,15.10
2019,08,14,02,46,15.10
2019,08,14,02,47,15.20
2019,08,14,02,48,15.20
2019,08,14,02,49,15.20
2019,08,14,02,50,15.10
2019,08,14,02,51,15.10
2019,08,14,02,52,15.10
2019,08,14,02,53,15.10
2019,08,14,02,54,15.20
2019,08,14,02,55,15.10
2019,08,14,02,56,15.10
2019,08,14,02,57,15.10
2019,08,14,02,58,15.10
2019,08,14,02,59,15.10
2019,08,14,03,00,15.10
2019,08,14,03,01,15.10
2019,08,14,03,02,15.10
2019,08,14,03,03,15.10
2019,08,14,03,04,15.00
2019,08,14,03,05,15.00
2019,08,14,03,06,15.00
2019,08,14,03,07,14.90
2019,08,14,03,08,14.90
2019,08,14,03,09,14.90
2019,08,14,03,10,14.90
2019,08,14,03,11,14.90
2019,08,14,03,12,14.90
2019,08,14,03,13,14.90
2019,08,14,03,14,14.90
2019,08,14,03,15,14.90
2019,08,14,03,16,14.90
2019,08,14,03,17,14.80
2019,08,14,03,18,14.80
2019,08,14,03,19,14.80
2019,08,14,03,20,14.80
2019,08,14,03,21,14.80
2019,08,14,03,22,14.80
2019,08,14,03,23,14.80
2019,08,14,03,24,14.80
2019,08,14,03,25,14.80
2019,08,14,03,26,14.80
2019,08,14,03,27,14.80
2019,08,14,03,28,14.80
2019,08,14,03,29,14.80
2019,08,14,03,30,14.80
2019,08,14,03,31,14.80
2019,08,14,03,32,14.80
2019,08,14,03,33,14.80
2019,08,14,03,34,14.70
2019,08,14,03,35,14.70
2019,08,14,03,36,14.70
2019,08,14,03,37,14.70
2019,08,14,03,38,14.80
2019,08,14,03,39,14.80
2019,08,14,03,40,14.80
2019,08,14,03,41,14.90
2019,08,14,03,42,14.90
2019,08,14,03,43,15.00
2019,08,14,03,44,15.00
2019,08,14,03,45,15.00
2019,08,14,03,46,15.00
2019,08,14,03,47,15.00
2019,08,14,03,48,15.00
2019,08,14,03,49,15.10
2019,08,14,03,50,15.10
2019,08,14,03,51,15.10
2019,08,14,03,52,15.00
2019,08,14,03,53,15.00
2019,08,14,03,54,15.00
2019,08,14,03,55,15.00
2019,08,14,03,56,15.00
2019,08,14,03,57,14.90
2019,08,14,03,58,15.00
2019,08,14,03,59,15.00
2019,08,14,04,00,15.00
2019,08,14,04,01,15.00
2019,08,14,04,02,15.00
2019,08,14,04,03,15.00
2019,08,14,04,04,15.00
2019,08,14,04,05,15.00
2019,08,14,04,06,15.00
2019,08,14,04,07,15.10
2019,08,14,04,08,15.10
2019,08,14,04,09,15.10
2019,08,14,04,10,15.10
2019,08,14,04,11,15.10
2019,08,14,04,12,15.10
2019,08,14,04,13,15.10
2019,08,14,04,14,15.20
2019,08,14,04,15,15.20
2019,08,14,04,16,15.20
2019,08,14,04,17,15.30
2019,08,14,04,18,15.30
2019,08,14,04,19,15.30
2019,08,14,04,20,15.30
2019,08,14,04,21,15.30
2019,08,14,04,22,15.20
2019,08,14,04,23,15.30
2019,08,14,04,24,15.20
2019,08,14,04,25,15.20
2019,08,14,04,26,15.20
2019,08,14,04,27,15.20
2019,08,14,04,28,15.20
2019,08,14,04,29,15.20
2019,08,14,04,30,15.20
2019,08,14,04,31,15.20
2019,08,14,04,32,15.20
2019,08,14,04,33,15.20
2019,08,14,04,34,15.20
2019,08,14,04,35,15.20
2019,08,14,04,36,15.20
2019,08,14,04,37,15.20
2019,08,14,04,38,15.20
2019,08,14,04,39,15.20
2019,08,14,04,40,15.20
2019,08,14,04,41,15.20
2019,08,14,04,42,15.20
2019,08,14,04,43,15.20
2019,08,14,04,44,15.20
2019,08,14,04,45,15.10
2019,08,14,04,46,15.10
2019,08,14,04,47,15.10
2019,08,14,04,48,15.10
2019,08,14,04,49,15.20
2019,08,14,04,50,15.20
2019,08,14,04,51,15.20
2019,08,14,04,52,15.20
2019,08,14,04,53,15.20
2019,08,14,04,54,15.10
2019,08,14,04,55,15.10
2019,08,14,04,56,15.10
2019,08,14,04,57,15.10
2019,08,14,04,58,15.10
2019,08,14,04,59,15.10
2019,08,14,05,00,15.10
2019,08,14,05,01,15.10
2019,08,14,05,02,15.10
2019,08,14,05,03,15.10
2019,08,14,05,04,15.10
2019,08,14,05,05,15.10
2019,08,14,05,06,15.10
2019,08,14,05,07,15.10
2019,08,14,05,08,15.10
2019,08,14,05,09,15.10
2019,08,14,05,10,15.20
2019,08,14,05,11,15.20
2019,08,14,05,12,15.20
2019,08,14,05,13,15.20
2019,08,14,05,14,15.20
2019,08,14,05,15,15.20
2019,08,14,05,16,15.20
2019,08,14,05,17,15.20
2019,08,14,05,18,15.20
2019,08,14,05,19,15.20
2019,08,14,05,20,15.20
2019,08,14,05,21,15.30
2019,08,14,05,22,15.30
2019,08,14,05,23,15.20
2019,08,14,05,24,15.20
2019,08,14,05,25,15.20
2019,08,14,05,26,15.20
2019,08,14,05,27,15.20
2019,08,14,05,28,15.20
2019,08,14,05,29,15.20
2019,08,14,05,30,15.20
2019,08,14,05,31,15.20
2019,08,14,05,32,15.20
2019,08,14,05,33,15.20
2019,08,14,05,34,15.20
2019,08,14,05,35,15.20
2019,08,14,05,36,15.20
2019,08,14,05,37,15.20
2019,08,14,05,38,15.20
2019,08,14,05,39,15.20
2019,08,14,05,40,15.20
2019,08,14,05,41,15.20
2019,08,14,05,42,15.10
2019,08,14,05,43,15.10
2019,08,14,05,44,15.10
2019,08,14,05,45,15.10
2019,08,14,05,46,15.10
2019,08,14,05,47,15.10
2019,08,14,05,48,15.10
2019,08,14,05,49,15.10
2019,08,14,05,50,15.10
2019,08,14,05,51,15.10
2019,08,14,05,52,15.10
2019,08,14,05,53,15.00
2019,08,14,05,54,15.00
2019,08,14,05,55,14.90
2019,08,14,05,56,14.90
2019,08,14,05,57,14.90
2019,08,14,05,58,14.80
2019,08,14,05,59,14.80
2019,08,14,06,00,14.70
2019,08,14,06,01,14.70
2019,08,14,06,02,14.70
2019,08,14,06,03,14.60
2019,08,14,06,04,14.60
2019,08,14,06,05,14.60
2019,08,14,06,06,14.60
2019,08,14,06,07,14.60
2019,08,14,06,08,14.60
2019,08,14,06,09,14.60
2019,08,14,06,10,14.50
2019,08,14,06,11,14.50
2019,08,14,06,12,14.50
2019,08,14,06,13,14.50
2019,08,14,06,14,14.50
2019,08,14,06,15,14.40
2019,08,14,06,16,14.40
2019,08,14,06,17,14.40
2019,08,14,06,18,14.40
2019,08,14,06,19,14.40
2019,08,14,06,20,14.40
2019,08,14,06,21,14.40
2019,08,14,06,22,14.40
2019,08,14,06,23,14.40
2019,08,14,06,24,14.30
2019,08,14,06,25,14.30
2019,08,14,06,26,14.30
2019,08,14,06,27,14.30
2019,08,14,06,28,14.30
2019,08,14,06,29,14.30
2019,08,14,06,30,14.30
2019,08,14,06,31,14.30
2019,08,14,06,32,14.30
2019,08,14,06,33,14.30
2019,08,14,06,34,14.30
2019,08,14,06,35,14.30
2019,08,14,06,36,14.30
2019,08,14,06,37,14.30
2019,08,14,06,38,14.30
2019,08,14,06,39,14.30
2019,08,14,06,40,14.30
2019,08,14,06,41,14.30
2019,08,14,06,42,14.30
2019,08,14,06,43,14.30
2019,08,14,06,44,14.30
2019,08,14,06,45,14.30
2019,08,14,06,46,14.30
2019,08,14,06,47,14.30
2019,08,14,06,48,14.30
2019,08,14,06,49,14.30
2019,08,14,06,50,14.30
2019,08,14,06,51,14.30
2019,08,14,06,52,14.30
2019,08,14,06,53,14.30
2019,08,14,06,54,14.30
2019,08,14,06,55,14.30
2019,08,14,06,56,14.30
2019,08,14,06,57,14.30
2019,08,14,06,58,14.30
2019,08,14,06,59,14.30
2019,08,14,07,00,14.30
2019,08,14,07,01,14.30
2019,08,14,07,02,14.30
2019,08,14,07,03,14.30
2019,08,14,07,04,14.30
2019,08,14,07,05,14.30
2019,08,14,07,06,14.30
2019,08,14,07,07,14.30
2019,08,14,07,08,14.30
2019,08,14,07,09,14.30
2019,08,14,07,10,14.40
2019,08,14,07,11,14.40
2019,08,14,07,12,14.40
2019,08,14,07,13,14.40
2019,08,14,07,14,14.50
2019,08,14,07,15,14.50
2019,08,14,07,16,14.50
2019,08,14,07,17,14.60
2019,08,14,07,18,14.60
2019,08,14,07,19,14.60
2019,08,14,07,20,14.60
2019,08,14,07,21,14.60
2019,08,14,07,22,14.70
2019,08,14,07,23,14.70
2019,08,14,07,24,14.70
2019,08,14,07,25,14.70
2019,08,14,07,26,14.70
2019,08,14,07,27,14.70
2019,08,14,07,28,14.70
2019,08,14,07,29,14.70
2019,08,14,07,30,14.70
2019,08,14,07,31,14.70
2019,08,14,07,32,14.70
2019,08,14,07,33,14.80
2019,08,14,07,34,14.80
2019,08,14,07,35,14.80
2019,08,14,07,36,14.80
2019,08,14,07,37,14.80
2019,08,14,07,38,14.90
2019,08,14,07,39,14.90
2019,08,14,07,40,14.90
2019,08,14,07,41,14.90
2019,08,14,07,42,15.00
2019,08,14,07,43,15.00
2019,08,14,07,44,15.00
2019,08,14,07,45,15.00
2019,08,14,07,46,15.10
2019,08,14,07,47,15.10
2019,08,14,07,48,15.10
2019,08,14,07,49,15.20
2019,08,14,07,50,15.20
2019,08,14,07,51,15.30
2019,08,14,07,52,15.30
2019,08,14,07,53,15.40
2019,08,14,07,54,15.40
2019,08,14,07,55,15.50
2019,08,14,07,56,15.50
2019,08,14,07,57,15.60
2019,08,14,07,58,15.60
2019,08,14,07,59,15.70
2019,08,14,08,00,15.70
2019,08,14,08,01,15.80
2019,08,14,08,02,15.80
2019,08,14,08,03,15.90
2019,08,14,08,04,15.90
2019,08,14,08,05,16.00
2019,08,14,08,06,16.00
2019,08,14,08,07,16.10
2019,08,14,08,08,16.10
2019,08,14,08,09,16.20
2019,08,14,08,10,16.20
2019,08,14,08,11,16.20
2019,08,14,08,12,16.30
2019,08,14,08,13,16.30
2019,08,14,08,14,16.40
2019,08,14,08,15,16.40
2019,08,14,08,16,16.40
2019,08,14,08,17,16.50
2019,08,14,08,18,16.50
2019,08,14,08,19,16.60
2019,08,14,08,20,16.60
2019,08,14,08,21,16.70
2019,08,14,08,22,16.80
2019,08,14,08,23,16.80
2019,08,14,08,24,16.90
2019,08,14,08,25,17.00
2019,08,14,08,26,17.10
2019,08,14,08,27,17.20
2019,08,14,08,28,17.30
2019,08,14,08,29,17.30
2019,08,14,08,30,17.30
2019,08,14,08,31,17.30
2019,08,14,08,32,17.30
2019,08,14,08,33,17.40
2019,08,14,08,34,17.50
2019,08,14,08,35,17.60
2019,08,14,08,36,17.70
2019,08,14,08,37,17.70
2019,08,14,08,38,17.80
2019,08,14,08,39,17.80
2019,08,14,08,40,17.90
2019,08,14,08,41,17.90
2019,08,14,08,42,17.90
2019,08,14,08,43,18.00
2019,08,14,08,44,18.00
2019,08,14,08,45,18.00
2019,08,14,08,46,18.10
2019,08,14,08,47,18.10
2019,08,14,08,48,18.20
2019,08,14,08,49,18.30
2019,08,14,08,50,18.30
2019,08,14,08,51,18.40
2019,08,14,08,52,18.50
2019,08,14,08,53,18.50
2019,08,14,08,54,18.70
2019,08,14,08,55,18.70
2019,08,14,08,56,18.80
2019,08,14,08,57,18.90
2019,08,14,08,58,19.00
2019,08,14,08,59,19.10
2019,08,14,09,00,19.20
2019,08,14,09,01,19.30
2019,08,14,09,02,19.30
2019,08,14,09,03,19.40
2019,08,14,09,04,19.40
2019,08,14,09,05,19.40
2019,08,14,09,06,19.50
2019,08,14,09,07,19.50
2019,08,14,09,08,19.50
2019,08,14,09,09,19.60
2019,08,14,09,10,19.70
2019,08,14,09,11,19.80
2019,08,14,09,12,19.90
2019,08,14,09,13,20.00
2019,08,14,09,14,20.10
2019,08,14,09,15,20.20
2019,08,14,09,16,20.20
2019,08,14,09,17,20.20
2019,08,14,09,18,20.20
2019,08,14,09,19,20.20
2019,08,14,09,20,20.10
2019,08,14,09,21,20.10
2019,08,14,09,22,20.00
2019,08,14,09,23,20.00
2019,08,14,09,24,20.00
2019,08,14,09,25,20.00
2019,08,14,09,26,20.00
2019,08,14,09,27,20.00
2019,08,14,09,28,20.00
2019,08,14,09,29,20.10
2019,08,14,09,30,20.10
2019,08,14,09,31,20.20
2019,08,14,09,32,20.30
2019,08,14,09,33,20.30
2019,08,14,09,34,20.30
2019,08,14,09,35,20.40
2019,08,14,09,36,20.40
2019,08,14,09,37,20.40
2019,08,14,09,38,20.50
2019,08,14,09,39,20.60
2019,08,14,09,40,20.70
2019,08,14,09,41,20.70
2019,08,14,09,42,20.80
2019,08,14,09,43,20.80
2019,08,14,09,44,20.80
2019,08,14,09,45,20.90
2019,08,14,09,46,20.90
2019,08,14,09,47,21.00
2019,08,14,09,48,21.00
2019,08,14,09,49,21.10
2019,08,14,09,50,21.20
2019,08,14,09,51,21.40
2019,08,14,09,52,21.40
2019,08,14,09,53,21.60
2019,08,14,09,54,21.70
2019,08,14,09,55,21.80
2019,08,14,09,56,21.80
2019,08,14,09,57,21.80
2019,08,14,09,58,21.80
2019,08,14,09,59,21.80
2019,08,14,10,00,21.80
2019,08,14,10,01,21.90
2019,08,14,10,02,21.90
2019,08,14,10,03,21.80
2019,08,14,10,04,21.80
2019,08,14,10,05,21.80
2019,08,14,10,06,21.80
2019,08,14,10,07,21.90
2019,08,14,10,08,21.90
2019,08,14,10,09,22.00
2019,08,14,10,10,22.00
2019,08,14,10,11,22.10
2019,08,14,10,12,22.10
2019,08,14,10,13,22.20
2019,08,14,10,14,22.20
2019,08,14,10,15,22.20
2019,08,14,10,16,22.20
2019,08,14,10,17,22.20
2019,08,14,10,18,22.30
2019,08,14,10,19,22.30
2019,08,14,10,20,22.30
2019,08,14,10,21,22.30
2019,08,14,10,22,22.40
2019,08,14,10,23,22.50
2019,08,14,10,24,22.60
2019,08,14,10,25,22.70
2019,08,14,10,26,22.80
2019,08,14,10,27,22.80
2019,08,14,10,28,22.90
2019,08,14,10,29,22.90
2019,08,14,10,30,23.00
2019,08,14,10,31,23.10
2019,08,14,10,32,23.10
2019,08,14,10,33,23.20
2019,08,14,10,34,23.20
2019,08,14,10,35,23.30
2019,08,14,10,36,23.30
2019,08,14,10,37,23.30
2019,08,14,10,38,23.30
2019,08,14,10,39,23.30
2019,08,14,10,40,23.30
2019,08,14,10,41,23.30
2019,08,14,10,42,23.20
2019,08,14,10,43,23.20
2019,08,14,10,44,23.10
2019,08,14,10,45,23.00
2019,08,14,10,46,22.90
2019,08,14,10,47,22.90
2019,08,14,10,48,22.90
2019,08,14,10,49,22.80
2019,08,14,10,50,22.70
2019,08,14,10,51,22.70
2019,08,14,10,52,22.60
2019,08,14,10,53,22.60
2019,08,14,10,54,22.60
2019,08,14,10,55,22.60
2019,08,14,10,56,22.50
2019,08,14,10,57,22.60
2019,08,14,10,58,22.60
2019,08,14,10,59,22.70
2019,08,14,11,00,22.70
2019,08,14,11,01,22.80
2019,08,14,11,02,22.90
2019,08,14,11,03,23.00
2019,08,14,11,04,23.10
2019,08,14,11,05,23.20
2019,08,14,11,06,23.20
2019,08,14,11,07,23.20
2019,08,14,11,08,23.30
2019,08,14,11,09,23.40
2019,08,14,11,10,23.40
2019,08,14,11,11,23.40
2019,08,14,11,12,23.50
2019,08,14,11,13,23.50
2019,08,14,11,14,23.50
2019,08,14,11,15,23.60
2019,08,14,11,16,23.60
2019,08,14,11,17,23.60
2019,08,14,11,18,23.70
2019,08,14,11,19,23.60
2019,08,14,11,20,23.50
2019,08,14,11,21,23.50
2019,08,14,11,22,23.50
2019,08,14,11,23,23.50
2019,08,14,11,24,23.60
2019,08,14,11,25,23.60
2019,08,14,11,26,23.60
2019,08,14,11,27,23.70
2019,08,14,11,28,23.70
2019,08,14,11,29,23.70
2019,08,14,11,30,23.80
2019,08,14,11,31,23.90
2019,08,14,11,32,24.00
2019,08,14,11,33,24.00
2019,08,14,11,34,24.10
2019,08,14,11,35,24.10
2019,08,14,11,36,24.00
2019,08,14,11,37,23.90
2019,08,14,11,38,24.00
2019,08,14,11,39,23.90
2019,08,14,11,40,23.90
2019,08,14,11,41,24.00
2019,08,14,11,42,23.90
2019,08,14,11,43,24.00
2019,08,14,11,44,24.00
2019,08,14,11,45,24.00
2019,08,14,11,46,23.90
2019,08,14,11,47,23.80
2019,08,14,11,48,23.80
2019,08,14,11,49,23.90
2019,08,14,11,50,24.00
2019,08,14,11,51,24.10
2019,08,14,11,52,24.10
2019,08,14,11,53,24.20
2019,08,14,11,54,24.30
2019,08,14,11,55,24.30
2019,08,14,11,56,24.40
2019,08,14,11,57,24.40
2019,08,14,11,58,24.50
2019,08,14,11,59,24.50
2019,08,14,12,00,24.60
2019,08,14,12,01,24.70
2019,08,14,12,02,24.70
2019,08,14,12,03,24.80
2019,08,14,12,04,24.80
2019,08,14,12,05,24.70
2019,08,14,12,06,24.70
2019,08,14,12,07,24.70
2019,08,14,12,08,24.60
2019,08,14,12,09,24.60
2019,08,14,12,10,24.50
2019,08,14,12,11,24.50
2019,08,14,12,12,24.50
2019,08,14,12,13,24.50
2019,08,14,12,14,24.50
2019,08,14,12,15,24.40
2019,08,14,12,16,24.40
2019,08,14,12,17,24.40
2019,08,14,12,18,24.30
2019,08,14,12,19,24.30
2019,08,14,12,20,24.40
2019,08,14,12,21,24.40
2019,08,14,12,22,24.30
2019,08,14,12,23,24.20
2019,08,14,12,24,24.20
2019,08,14,12,25,24.10
2019,08,14,12,26,24.10
2019,08,14,12,27,24.10
2019,08,14,12,28,24.20
2019,08,14,12,29,24.20
2019,08,14,12,30,24.30
2019,08,14,12,31,24.40
2019,08,14,12,32,24.40
2019,08,14,12,33,24.40
2019,08,14,12,34,24.40
2019,08,14,12,35,24.30
2019,08,14,12,36,24.30
2019,08,14,12,37,24.20
2019,08,14,12,38,24.10
2019,08,14,12,39,24.10
2019,08,14,12,40,24.00
2019,08,14,12,41,24.00
2019,08,14,12,42,24.10
2019,08,14,12,43,24.10
2019,08,14,12,44,24.10
2019,08,14,12,45,24.10
2019,08,14,12,46,24.10
2019,08,14,12,47,24.20
2019,08,14,12,48,24.20
2019,08,14,12,49,24.30
2019,08,14,12,50,24.30
2019,08,14,12,51,24.40
2019,08,14,12,52,24.50
2019,08,14,12,53,24.60
2019,08,14,12,54,24.60
2019,08,14,12,55,24.60
2019,08,14,12,56,24.50
2019,08,14,12,57,24.40
2019,08,14,12,58,24.40
2019,08,14,12,59,24.30
2019,08,14,13,00,24.20
2019,08,14,13,01,24.20
2019,08,14,13,02,24.20
2019,08,14,13,03,24.20
2019,08,14,13,04,24.20
2019,08,14,13,05,24.30
2019,08,14,13,06,24.40
2019,08,14,13,07,24.40
2019,08,14,13,08,24.40
2019,08,14,13,09,24.50
2019,08,14,13,10,24.50
2019,08,14,13,11,24.60
2019,08,14,13,12,24.70
2019,08,14,13,13,24.70
2019,08,14,13,14,24.80
2019,08,14,13,15,24.80
2019,08,14,13,16,24.80
2019,08,14,13,17,24.70
2019,08,14,13,18,24.60
2019,08,14,13,19,24.60
2019,08,14,13,20,24.40
2019,08,14,13,21,24.30
2019,08,14,13,22,24.30
2019,08,14,13,23,24.30
2019,08,14,13,24,24.30
2019,08,14,13,25,24.30
2019,08,14,13,26,24.40
2019,08,14,13,27,24.40
2019,08,14,13,28,24.40
2019,08,14,13,29,24.40
2019,08,14,13,30,24.40
2019,08,14,13,31,24.50
2019,08,14,13,32,24.50
2019,08,14,13,33,24.60
2019,08,14,13,34,24.70
2019,08,14,13,35,24.80
2019,08,14,13,36,24.90
2019,08,14,13,37,25.00
2019,08,14,13,38,25.10
2019,08,14,13,39,25.10
2019,08,14,13,40,25.20
2019,08,14,13,41,25.20
2019,08,14,13,42,25.30
2019,08,14,13,43,25.30
2019,08,14,13,44,25.40
2019,08,14,13,45,25.40
2019,08,14,13,46,25.40
2019,08,14,13,47,25.30
2019,08,14,13,48,25.30
2019,08,14,13,49,25.30
2019,08,14,13,50,25.40
2019,08,14,13,51,25.50
2019,08,14,13,52,25.50
2019,08,14,13,53,25.70
2019,08,14,13,54,25.80
2019,08,14,13,55,25.90
2019,08,14,13,56,26.00
2019,08,14,13,57,26.00
2019,08,14,13,58,26.00
2019,08,14,13,59,25.90
2019,08,14,14,00,25.80
2019,08,14,14,01,25.70
2019,08,14,14,02,25.60
2019,08,14,14,03,25.60
2019,08,14,14,04,25.50
2019,08,14,14,05,25.50
2019,08,14,14,06,25.50
2019,08,14,14,07,25.40
2019,08,14,14,08,25.40
2019,08,14,14,09,25.40
2019,08,14,14,10,25.40
2019,08,14,14,11,25.40
2019,08,14,14,12,25.50
2019,08,14,14,13,25.50
2019,08,14,14,14,25.50
2019,08,14,14,15,25.50
2019,08,14,14,16,25.50
2019,08,14,14,17,25.50
2019,08,14,14,18,25.40
2019,08,14,14,19,25.40
2019,08,14,14,20,25.50
2019,08,14,14,21,25.50
2019,08,14,14,22,25.50
2019,08,14,14,23,25.60
2019,08,14,14,24,25.60
2019,08,14,14,25,25.60
2019,08,14,14,26,25.60
2019,08,14,14,27,25.60
2019,08,14,14,28,25.70
2019,08,14,14,29,25.80
2019,08,14,14,30,25.80
2019,08,14,14,31,25.90
2019,08,14,14,32,26.10
2019,08,14,14,33,26.20
2019,08,14,14,34,26.30
2019,08,14,14,35,26.30
2019,08,14,14,36,26.30
2019,08,14,14,37,26.30
2019,08,14,14,38,26.30
2019,08,14,14,39,26.30
2019,08,14,14,40,26.40
2019,08,14,14,41,26.50
2019,08,14,14,42,26.50
2019,08,14,14,43,26.50
2019,08,14,14,44,26.50
2019,08,14,14,45,26.50
2019,08,14,14,46,26.40
2019,08,14,14,47,26.40
2019,08,14,14,48,26.40
2019,08,14,14,49,26.40
2019,08,14,14,50,26.40
2019,08,14,14,51,26.40
2019,08,14,14,52,26.30
2019,08,14,14,53,26.30
2019,08,14,14,54,26.30
2019,08,14,14,55,26.30
2019,08,14,14,56,26.30
2019,08,14,14,57,26.30
2019,08,14,14,58,26.30
2019,08,14,14,59,26.40
2019,08,14,15,00,26.30
2019,08,14,15,01,26.20
2019,08,14,15,02,26.20
2019,08,14,15,03,26.20
2019,08,14,15,04,26.20
2019,08,14,15,05,26.10
2019,08,14,15,06,26.10
2019,08,14,15,07,26.20
2019,08,14,15,08,26.20
2019,08,14,15,09,26.30
2019,08,14,15,10,26.40
2019,08,14,15,11,26.60
2019,08,14,15,12,26.80
2019,08,14,15,13,26.90
2019,08,14,15,14,27.00
2019,08,14,15,15,27.20
2019,08,14,15,16,27.20
2019,08,14,15,17,27.30
2019,08,14,15,18,27.30
2019,08,14,15,19,27.30
2019,08,14,15,20,27.20
2019,08,14,15,21,27.20
2019,08,14,15,22,27.20
2019,08,14,15,23,27.10
2019,08,14,15,24,27.00
2019,08,14,15,25,27.00
2019,08,14,15,26,26.90
2019,08,14,15,27,27.00
2019,08,14,15,28,27.00
2019,08,14,15,29,27.10
2019,08,14,15,30,27.10
2019,08,14,15,31,27.20
2019,08,14,15,32,27.20
2019,08,14,15,33,27.30
2019,08,14,15,34,27.30
2019,08,14,15,35,27.30
2019,08,14,15,36,27.30
2019,08,14,15,37,27.20
2019,08,14,15,38,27.20
2019,08,14,15,39,27.20
2019,08,14,15,40,27.20
2019,08,14,15,41,27.10
2019,08,14,15,42,27.10
2019,08,14,15,43,27.00
2019,08,14,15,44,26.90
2019,08,14,15,45,26.90
2019,08,14,15,46,26.90
2019,08,14,15,47,26.90
2019,08,14,15,48,26.90
2019,08,14,15,49,26.80
2019,08,14,15,50,26.80
2019,08,14,15,51,26.90
2019,08,14,15,52,26.90
2019,08,14,15,53,26.90
2019,08,14,15,54,26.90
2019,08,14,15,55,27.00
2019,08,14,15,56,27.00
2019,08,14,15,57,27.00
2019,08,14,15,58,27.10
2019,08,14,15,59,27.10
2019,08,14,16,00,27.10
2019,08,14,16,01,27.20
2019,08,14,16,02,27.20
2019,08,14,16,03,27.30
2019,08,14,16,04,27.30
2019,08,14,16,05,27.40
2019,08,14,16,06,27.40
2019,08,14,16,07,27.40
2019,08,14,16,08,27.40
2019,08,14,16,09,27.40
2019,08,14,16,10,27.40
2019,08,14,16,11,27.40
2019,08,14,16,12,27.50
2019,08,14,16,13,27.50
2019,08,14,16,14,27.60
2019,08,14,16,15,27.70
2019,08,14,16,16,27.60
2019,08,14,16,17,27.60
2019,08,14,16,18,27.60
2019,08,14,16,19,27.70
2019,08,14,16,20,27.70
2019,08,14,16,21,27.70
2019,08,14,16,22,27.70
2019,08,14,16,23,27.70
2019,08,14,16,24,27.70
2019,08,14,16,25,27.60
2019,08,14,16,26,27.60
2019,08,14,16,27,27.60
2019,08,14,16,28,27.50
2019,08,14,16,29,27.50
2019,08,14,16,30,27.40
2019,08,14,16,31,27.40
2019,08,14,16,32,27.50
2019,08,14,16,33,27.60
2019,08,14,16,34,27.60
2019,08,14,16,35,27.70
2019,08,14,16,36,27.80
2019,08,14,16,37,27.80
2019,08,14,16,38,27.90
2019,08,14,16,39,27.90
2019,08,14,16,40,28.00
2019,08,14,16,41,28.00
2019,08,14,16,42,28.00
2019,08,14,16,43,27.90
2019,08,14,16,44,27.80
2019,08,14,16,45,27.80
2019,08,14,16,46,27.80
2019,08,14,16,47,27.70
2019,08,14,16,48,27.70
2019,08,14,16,49,27.70
2019,08,14,16,50,27.60
2019,08,14,16,51,27.60
2019,08,14,16,52,27.60
2019,08,14,16,53,27.70
2019,08,14,16,54,27.70
2019,08,14,16,55,27.80
2019,08,14,16,56,27.90
2019,08,14,16,57,27.90
2019,08,14,16,58,27.90
2019,08,14,16,59,27.90
2019,08,14,17,00,27.90
2019,08,14,17,01,27.90
2019,08,14,17,02,27.90
2019,08,14,17,03,27.80
2019,08,14,17,04,27.80
2019,08,14,17,05,27.80
2019,08,14,17,06,27.80
2019,08,14,17,07,27.80
2019,08,14,17,08,27.80
2019,08,14,17,09,27.80
2019,08,14,17,10,27.80
2019,08,14,17,11,27.80
2019,08,14,17,12,27.80
2019,08,14,17,13,27.80
2019,08,14,17,14,27.80
2019,08,14,17,15,27.80
2019,08,14,17,16,27.90
2019,08,14,17,17,27.90
2019,08,14,17,18,27.90
2019,08,14,17,19,28.00